Content
SEND FEEDBACK

Daily
Averages
Monthly
Summary
United States of America

KAPAA - SPALDING MONUMENT, HAWAII


Home > North America > United States > Hawaii
Elevation: 250 feet     Latitude: 22 07N     Longitude: 159 19W

WEATHER
 
SELECT A DAY
Number of Records: 219,492;   Date Range: 1/1/95 - 9/18/14
 
SHARE

PRINT THIS DATA

[ ← Previous Day ]
WEATHER ALMANAC - JANUARY 19, 2013
[ Next Day → ]
[ °C ]   °F
Weather ElementAverageHighLow
Temperature67.8 °F75 °F (11:53 am)60.1 °F (5:53 am)
Dewpoint52.6 °F55.9 °F (4:53 pm)50 °F (5:53 am)
Humidity58.8 %72 % (7:53 am)44 % (2:53 pm)
Barometer30.01 in30.08 in (9:53 pm)29.95 in (2:53 pm)
Wind Speed11.5 mph23 mph (1:53 pm)
Wind Gust27.6 mph (11:53 am)
Weather ElementAverage
Visibility10 mi
Wind DirectionWNW (306.5 °)

Weather ElementTotal
Precipitation---
Cooling Degree Days2.6 (Base 65)
Growing Degree Days17.6 (Base 50)
Averaged from 23 records on January 19, 2013
WEATHER CONDITIONS BREAKOUT
WIND DIRECTION BREAKOUT
WEATHER BY HOUR - JANUARY 19, 2013
[ °C ]   °F
Local TimeTemperatureDewpointHumidityBarometerVisibilityWind DirectionWind SpeedGust SpeedPrecipitationEventsConditions
1:53 AM64.0 °F52.0 °F65 %29.99 in10.0 miNorth (350°)8.1 mphMostly Cloudy
2:53 AM61.0 °F51.1 °F70 %29.97 in10.0 miWNW (290°)6.9 mphClear
3:53 AM62.1 °F52.0 °F70 %29.98 in10.0 miNNW (330°)6.9 mphScattered Clouds
4:53 AM62.1 °F51.1 °F67 %29.97 in10.0 miNNW (340°)8.1 mphPartly Cloudy
5:53 AM60.1 °F50.0 °F69 %29.98 in10.0 miNW (320°)8.1 mphClear
6:53 AM60.1 °F50.0 °F69 %29.99 in10.0 miWest (280°)6.9 mphClear
7:53 AM61.0 °F52.0 °F72 %30.01 in10.0 miWest (270°)6.9 mphPartly Cloudy
8:53 AM66.9 °F53.1 °F61 %30.02 in10.0 miWest (270°)6.9 mphClear
9:53 AM73.0 °F54.0 °F51 %30.03 in10.0 miNorth (360°)15.0 mphClear
10:53 AM73.9 °F52.0 °F46 %30.03 in10.0 miNorth (360°)17.3 mphPartly Cloudy
11:53 AM75.0 °F53.1 °F46 %30.01 in10.0 miNorth (10°)18.4 mph27.6 mphPartly Cloudy
12:53 PM75.0 °F55.0 °F50 %29.98 in10.0 miNorth (360°)17.3 mph23.0 mphMostly Cloudy
1:53 PM75.0 °F54.0 °F48 %29.96 in10.0 miNorth (360°)23.0 mph26.5 mphClear
2:53 PM75.0 °F52.0 °F44 %29.95 in10.0 miNorth (360°)16.1 mph24.2 mphClear
3:53 PM73.9 °F52.0 °F46 %29.96 in10.0 miNorth (350°)15.0 mph25.3 mphClear
4:53 PM72.0 °F55.9 °F57 %29.98 in10.0 miNorth (10°)17.3 mph24.2 mphClear
5:53 PM70.0 °F53.1 °F55 %30.01 in10.0 miNorth (360°)12.7 mphClear
6:53 PM68.0 °F53.1 °F59 %30.02 in10.0 miNorth (350°)9.2 mphClear
7:53 PM66.9 °F54.0 °F63 %30.05 in10.0 miNorth (350°)11.5 mphScattered Clouds
8:53 PM66.0 °F53.1 °F63 %30.06 in10.0 miNorth (350°)6.9 mphMostly Cloudy
9:53 PM66.9 °F54.0 °F63 %30.08 in10.0 miNorth (350°)10.4 mphOvercast
10:53 PM66.0 °F51.1 °F59 %30.07 in10.0 miNNW (340°)6.9 mphOvercast
11:53 PM66.0 °F52.0 °F60 %30.06 in10.0 miNNW (330°)8.1 mphOvercast
Hourly data recorded from PHLI, located miles away from Kapaa - Spalding Monument, Hawaii







STORIES FROM OUR PARTNERS